Volver al catálogo

HULIANWANG DIGUI-85

ActivoComunicacionesPO
NORAD 65820·PAYLOAD·🇨🇳 China

Lanzado Sep 27, 2025 desde Taiyuan Satellite Launch Center

Loading…

Próximos Pases (próximas 24 horas)

TLE

ActualizadoSource: Space-Track

Época: Sep 14, 2026, 06:55 UTC

1 65820U 25220D   26257.28870259  .00000053  00000-0  88889-4 0  9998
2 65820  86.5051  13.8295 0001543  83.8904 276.2406 13.24409853 46715

Sigue HULIANWANG DIGUI-85 en tiempo real con AllMySat

Download on the App Store